�N����,����,�~����,�C��,���x,�C��,����,���ϕ���,�ő�u�ԕ���,�ő厞����,���˗�,�I�_���x,�n�����x,�ő啗���N��,DTYPE
"18/06/23","00:10",0.0,19.4,83.5,1003.8,295.5,1.0,1.6,309.3,0.00,16.6,21.7,"00:01:12",1
"18/06/23","00:20",0.0,19.4,83.7,1003.8,307.0,1.2,3.3,337.2,0.00,16.6,21.7,"00:14:56",1
"18/06/23","00:30",0.0,19.4,83.7,1003.6,302.5,1.0,1.8,311.7,0.00,16.6,21.6,"00:23:44",1
"18/06/23","00:40",0.0,19.5,84.1,1003.6,311.2,1.5,2.0,320.6,0.00,16.8,21.8,"00:33:44",1
"18/06/23","00:50",0.0,19.5,84.0,1003.4,300.4,1.3,2.0,324.2,0.00,16.8,21.8,"00:40:08",1
"18/06/23","01:00",0.0,19.6,83.8,1003.4,272.7,0.8,1.3,256.8,0.00,16.8,21.4,"00:57:28",1
"18/06/23","01:10",0.0,19.6,83.0,1003.1,312.5,1.2,1.8,325.5,0.00,16.7,21.6,"01:06:56",1
"18/06/23","01:20",0.0,19.8,83.8,1003.1,330.3,1.5,2.5,344.0,0.00,17.0,21.6,"01:14:32",1
"18/06/23","01:30",0.0,19.4,84.4,1002.9,271.9,0.8,1.4,244.7,0.00,16.7,21.4,"01:23:04",1
"18/06/23","01:40",0.0,19.3,84.7,1002.9,304.5,1.1,2.0,314.0,0.00,16.7,21.6,"01:39:52",1
"18/06/23","01:50",0.0,19.4,84.6,1002.6,309.7,1.5,2.4,332.0,0.00,16.8,21.3,"01:42:00",1
"18/06/23","02:00",0.0,19.3,85.0,1002.6,289.9,1.0,1.6,322.7,0.00,16.8,21.2,"01:50:08",1
"18/06/23","02:10",0.0,19.3,85.6,1002.4,300.5,1.0,1.8,324.6,0.00,16.9,21.3,"02:03:04",1
"18/06/23","02:20",0.0,19.4,86.0,1002.2,317.8,1.1,1.7,332.4,0.00,17.0,21.3,"02:17:28",1
"18/06/23","02:30",0.0,19.6,86.4,1001.9,331.0,1.2,1.6,342.6,0.00,17.3,21.3,"02:27:20",1
"18/06/23","02:40",0.0,19.3,86.7,1002.2,286.7,0.8,1.2,309.0,0.00,17.1,21.3,"02:30:32",1
"18/06/23","02:50",0.0,19.1,87.2,1002.4,268.3,0.8,1.2,255.7,0.00,17.0,21.2,"02:47:52",1
"18/06/23","03:00",0.0,19.3,87.0,1002.2,312.9,1.2,2.6,329.4,0.00,17.1,21.1,"02:58:40",1
"18/06/23","03:10",0.0,19.5,87.2,1001.7,306.1,1.1,1.9,324.8,0.00,17.4,20.9,"03:00:08",1
"18/06/23","03:20",0.0,19.2,87.6,1001.9,288.4,1.0,1.3,329.3,0.00,17.1,21.1,"03:12:02",1
"18/06/23","03:30",0.0,19.0,88.0,1001.9,291.2,0.7,1.3,319.4,0.00,17.0,21.1,"03:25:50",1
"18/06/23","03:40",0.0,19.0,88.2,1001.9,293.4,0.8,1.6,323.8,0.00,17.0,21.3,"03:35:12",1
"18/06/23","03:50",0.0,19.1,88.1,1001.9,291.8,1.0,2.0,334.0,0.00,17.1,21.0,"03:49:44",1
"18/06/23","04:00",0.0,19.1,88.2,1002.2,297.7,1.0,2.1,337.3,0.00,17.1,20.9,"03:50:48",1
"18/06/23","04:10",0.0,19.2,88.9,1001.5,319.1,1.1,2.0,349.6,0.00,17.4,21.1,"04:09:04",1
"18/06/23","04:20",0.0,19.3,88.8,1001.5,304.8,1.1,2.4,348.5,0.00,17.4,21.1,"04:10:48",1
"18/06/23","04:30",0.0,19.0,88.9,1001.7,276.2,1.0,1.4,273.3,0.00,17.2,21.0,"04:23:04",1
"18/06/23","04:40",0.0,19.0,89.1,1001.9,303.1,1.1,2.0,321.5,0.00,17.2,20.9,"04:32:56",1
"18/06/23","04:50",0.0,19.0,88.9,1001.7,277.9,0.7,1.0,262.2,0.00,17.2,20.9,"04:48:48",1
"18/06/23","05:00",0.0,18.8,89.1,1001.7,299.5,1.0,1.4,316.4,0.00,17.0,20.9,"04:54:56",1
"18/06/23","05:10",0.0,18.9,89.3,1001.9,313.2,0.8,1.4,328.5,0.00,17.1,20.7,"05:08:08",1
"18/06/23","05:20",0.0,19.1,90.2,1002.2,317.0,1.2,1.7,333.3,0.00,17.5,21.0,"05:14:56",1
"18/06/23","05:30",0.0,18.9,90.0,1002.4,289.4,0.8,1.3,307.7,0.00,17.3,20.9,"05:26:16",1
"18/06/23","05:40",0.0,18.8,90.1,1001.9,287.9,1.0,1.6,255.8,0.00,17.2,20.8,"05:32:00",1
"18/06/23","05:50",0.0,18.8,90.0,1001.7,306.4,1.0,1.8,327.8,0.00,17.2,21.0,"05:47:28",1
"18/06/23","06:00",0.0,18.9,90.0,1001.7,314.6,1.0,1.4,311.1,0.00,17.3,20.9,"05:54:00",1
"18/06/23","06:10",0.0,19.1,89.9,1001.5,306.4,1.0,1.4,324.6,0.00,17.4,20.9,"06:01:20",1
"18/06/23","06:20",0.0,19.0,90.1,1001.9,294.6,0.8,1.1,316.2,0.00,17.4,20.8,"06:16:48",1
"18/06/23","06:30",0.0,18.9,90.2,1001.7,301.5,1.0,1.6,315.2,0.00,17.3,21.0,"06:26:40",1
"18/06/23","06:40",0.0,18.9,90.4,1001.9,308.2,1.0,1.6,324.6,0.00,17.3,21.0,"06:31:12",1
"18/06/23","06:50",0.0,18.9,90.4,1001.7,300.0,0.6,1.3,310.2,0.00,17.3,20.6,"06:44:16",1
"18/06/23","07:00",0.0,19.0,90.5,1001.9,305.4,0.8,1.3,330.1,0.00,17.5,20.7,"06:50:02",1
"18/06/23","07:10",0.0,19.3,90.9,1001.5,327.6,0.8,1.4,340.1,0.00,17.8,20.6,"07:02:16",1
"18/06/23","07:20",0.0,19.3,90.5,1001.5,276.6,0.8,1.1,300.5,0.00,17.7,20.7,"07:15:20",1
"18/06/23","07:30",0.0,19.2,90.9,1001.2,309.0,1.0,1.8,318.1,0.00,17.7,20.7,"07:21:04",1
"18/06/23","07:40",0.0,19.3,90.2,1001.2,294.9,0.8,1.3,317.8,0.01,17.7,20.7,"07:30:32",1
"18/06/23","07:50",0.0,19.7,91.0,1000.8,322.7,1.2,2.1,328.1,0.03,18.2,20.6,"07:46:32",1
"18/06/23","08:00",0.0,20.0,90.3,1000.8,305.7,1.2,1.7,316.5,0.05,18.4,20.7,"07:54:24",1
"18/06/23","08:10",0.0,20.1,88.9,1000.3,306.5,1.2,1.7,307.5,0.05,18.3,20.9,"08:00:40",1
"18/06/23","08:20",0.0,20.5,88.1,999.8,286.5,0.8,1.3,264.6,0.05,18.5,20.9,"08:19:44",1
"18/06/23","08:30",0.0,20.9,87.1,999.8,288.8,0.7,1.2,325.5,0.05,18.7,21.0,"08:29:52",1
"18/06/23","08:40",0.0,21.2,85.3,999.1,309.3,0.8,1.4,319.4,0.07,18.7,20.8,"08:39:20",1
"18/06/23","08:50",0.0,21.8,83.3,999.1,298.2,0.5,1.1,326.8,0.08,18.9,20.9,"08:40:02",1
"18/06/23","09:00",0.0,21.9,81.9,999.1,337.9,0.8,1.4,347.1,0.10,18.7,21.1,"08:56:40",1
"18/06/23","09:10",0.0,21.9,82.1,998.9,323.8,1.3,2.1,342.9,0.11,18.7,21.0,"09:02:00",1
"18/06/23","09:20",0.0,22.4,80.1,998.6,330.3,1.2,2.4,341.8,0.14,18.8,21.2,"09:10:02",1
"18/06/23","09:30",0.0,22.7,78.9,998.4,328.4,1.1,1.9,352.4,0.11,18.9,21.2,"09:20:24",1
"18/06/23","09:40",0.0,23.2,77.9,998.4,318.2,1.0,1.4,332.1,0.09,19.2,21.0,"09:31:12",1
"18/06/23","09:50",0.0,23.2,77.7,998.2,336.6,1.0,1.9,339.6,0.08,19.1,21.2,"09:40:24",1
"18/06/23","10:00",0.0,22.9,81.3,997.4,341.0,1.2,2.2,337.4,0.09,19.6,21.3,"09:56:56",1
"18/06/23","10:10",0.0,23.2,79.3,998.2,336.2,1.2,2.5,340.0,0.10,19.5,21.4,"10:04:08",1
"18/06/23","10:20",0.0,23.5,74.6,997.9,292.2,0.7,1.6,334.3,0.10,18.8,21.4,"10:10:08",1
"18/06/23","10:30",0.0,23.6,71.9,998.6,229.8,0.7,1.9,202.9,0.07,18.3,21.4,"10:29:20",1
"18/06/23","10:40",0.0,23.5,68.8,998.9,161.4,1.7,3.1,142.8,0.07,17.5,21.3,"10:33:28",1
"18/06/23","10:50",0.0,23.5,70.8,998.6,156.3,1.0,2.2,134.5,0.11,17.9,21.4,"10:49:52",1
"18/06/23","11:00",0.0,23.7,69.5,998.9,180.6,1.2,2.4,144.8,0.12,17.8,21.5,"10:54:16",1
"18/06/23","11:10",0.0,23.8,70.8,998.6,174.8,0.8,2.0,173.9,0.14,18.2,21.6,"11:06:08",1
"18/06/23","11:20",0.0,23.3,73.0,999.1,150.6,1.0,2.9,167.2,0.10,18.2,21.5,"11:10:02",1
"18/06/23","11:30",0.2,23.0,73.8,998.9,142.1,1.1,2.6,190.1,0.07,18.1,21.6,"11:20:08",1
"18/06/23","11:40",0.0,22.7,76.1,998.9,188.2,0.6,2.6,140.9,0.06,18.3,21.6,"11:31:20",1
"18/06/23","11:50",0.2,22.6,79.1,999.1,309.4,0.3,1.3,141.5,0.05,18.8,21.7,"11:47:36",1
"18/06/23","12:00",0.2,22.3,81.8,998.6,4.9,0.6,1.6,334.8,0.06,19.1,21.8,"11:58:56",1
"18/06/23","12:10",1.0,22.1,84.0,998.9,339.0,1.3,2.2,352.0,0.08,19.3,21.8,"12:09:44",1
"18/06/23","12:20",0.8,20.9,89.1,998.9,352.5,1.1,2.5,336.0,0.09,19.1,21.7,"12:11:52",1
"18/06/23","12:30",0.4,21.1,89.8,998.9,350.1,1.0,1.8,337.4,0.08,19.4,21.5,"12:26:32",1
"18/06/23","12:40",0.2,21.0,90.9,998.9,323.1,0.7,1.7,321.8,0.09,19.5,21.7,"12:32:24",1
"18/06/23","12:50",0.8,21.0,90.4,999.3,18.5,0.1,0.6,26.6,0.07,19.4,21.8,"12:40:40",1
"18/06/23","13:00",0.6,20.6,90.9,998.9,299.6,0.6,1.3,322.5,0.03,19.1,21.7,"12:58:00",1
"18/06/23","13:10",1.6,20.5,91.7,999.6,292.2,0.7,1.3,331.5,0.03,19.1,21.8,"13:02:16",1
"18/06/23","13:20",1.4,20.4,92.0,999.6,327.8,1.0,1.9,335.5,0.03,19.1,21.6,"13:15:12",1
"18/06/23","13:30",1.8,20.3,92.5,999.3,327.0,1.1,1.9,318.4,0.03,19.1,21.6,"13:27:52",1
"18/06/23","13:40",1.6,20.2,92.6,999.6,339.4,0.7,1.7,344.2,0.04,19.0,21.7,"13:36:16",1
"18/06/23","13:50",1.0,20.0,92.7,999.8,322.8,0.7,2.0,330.4,0.03,18.8,21.7,"13:40:24",1
"18/06/23","14:00",1.0,19.9,93.0,999.6,279.4,0.5,1.1,338.6,0.03,18.8,21.5,"13:51:52",1
"18/06/23","14:10",1.0,19.9,93.2,999.8,274.9,0.5,0.8,256.6,0.03,18.8,21.4,"14:00:40",1
"18/06/23","14:20",0.8,20.0,93.6,999.3,214.7,0.7,1.1,208.9,0.03,19.0,21.7,"14:15:28",1
"18/06/23","14:30",1.4,20.0,93.2,998.9,189.1,0.3,1.2,126.6,0.04,18.9,21.5,"14:21:52",1
"18/06/23","14:40",0.8,20.1,93.8,998.9,195.7,0.7,1.4,147.9,0.06,19.1,21.5,"14:39:20",1
"18/06/23","14:50",0.8,19.9,93.0,998.2,144.9,0.7,1.8,150.2,0.08,18.8,21.5,"14:42:08",1
"18/06/23","15:00",0.4,19.9,93.8,998.2,134.6,0.8,2.4,166.1,0.09,18.9,21.4,"14:55:14",1
"18/06/23","15:10",0.2,19.7,93.8,997.7,111.3,1.0,2.0,126.4,0.10,18.7,21.5,"15:08:56",1
"18/06/23","15:20",0.2,20.2,92.8,998.4,286.6,0.5,1.2,66.2,0.13,19.0,21.2,"15:10:24",1
"18/06/23","15:30",0.0,20.4,93.1,999.1,285.9,0.7,1.8,322.8,0.06,19.3,21.5,"15:23:12",1
"18/06/23","15:40",0.0,20.3,93.2,998.6,247.4,0.8,2.1,204.4,0.05,19.2,21.4,"15:39:04",1
"18/06/23","15:50",0.0,20.5,93.9,998.9,228.6,1.1,2.4,204.5,0.11,19.5,21.4,"15:42:40",1
"18/06/23","16:00",0.0,20.7,93.0,998.9,254.3,0.6,1.4,309.8,0.14,19.6,21.5,"15:53:04",1
"18/06/23","16:10",0.0,21.0,91.3,999.1,292.1,0.5,1.0,256.2,0.13,19.6,21.5,"16:06:40",1
"18/06/23","16:20",0.0,21.1,90.6,998.9,234.8,0.6,1.6,231.1,0.06,19.5,21.5,"16:12:56",1
"18/06/23","16:30",0.0,21.2,90.7,998.4,229.9,0.6,1.2,210.9,0.10,19.7,21.7,"16:29:52",1
"18/06/23","16:40",0.0,21.1,89.5,998.9,212.4,0.6,1.9,202.3,0.11,19.3,21.6,"16:30:02",1
"18/06/23","16:50",0.0,21.5,88.7,998.6,192.0,0.5,1.3,186.3,0.13,19.6,21.6,"16:40:08",1
"18/06/23","17:00",0.0,21.7,86.3,998.6,247.0,0.6,1.4,261.4,0.10,19.4,21.9,"16:53:04",1
"18/06/23","17:10",0.0,21.7,86.0,998.9,254.2,0.3,1.1,182.7,0.08,19.3,21.7,"17:01:20",1
"18/06/23","17:20",0.0,21.9,85.6,998.9,240.0,0.8,1.9,236.8,0.06,19.4,21.6,"17:16:16",1
"18/06/23","17:30",0.0,21.6,86.3,999.1,240.3,1.1,2.1,234.1,0.04,19.3,21.7,"17:21:20",1
"18/06/23","17:40",0.0,21.3,86.3,998.6,239.9,1.0,1.7,226.1,0.04,19.0,21.7,"17:30:48",1
"18/06/23","17:50",0.0,21.5,86.9,998.9,295.7,0.8,1.3,319.2,0.03,19.3,21.7,"17:46:08",1
"18/06/23","18:00",0.0,21.4,86.3,998.9,314.8,0.8,1.4,321.0,0.04,19.1,21.7,"17:54:08",1
"18/06/23","18:10",0.0,21.4,86.4,999.1,305.9,1.1,1.8,312.3,0.01,19.1,21.6,"18:09:20",1
"18/06/23","18:20",0.0,21.2,86.9,999.6,291.5,0.8,1.6,319.2,0.00,19.0,21.6,"18:15:44",1
"18/06/23","18:30",0.0,21.1,87.9,999.3,295.2,1.0,1.6,326.7,0.00,19.1,21.5,"18:22:08",1
"18/06/23","18:40",0.0,21.1,88.7,999.6,314.3,1.1,1.9,334.0,0.00,19.2,21.6,"18:33:52",1
"18/06/23","18:50",0.0,21.0,89.5,999.6,294.1,0.5,1.0,302.6,0.00,19.2,21.9,"18:44:32",1
"18/06/23","19:00",0.0,20.7,89.7,999.6,298.2,0.3,0.6,306.4,0.00,19.0,21.8,"18:54:32",1
"18/06/23","19:10",0.0,20.9,90.6,1000.0,324.6,1.1,1.6,316.2,0.00,19.3,21.7,"19:06:16",1
"18/06/23","19:20",0.0,20.6,90.8,1000.0,324.4,1.2,1.7,323.0,0.00,19.1,21.7,"19:12:00",1
"18/06/23","19:30",0.0,20.4,91.5,999.6,334.1,1.1,1.6,340.0,0.00,19.0,21.4,"19:25:20",1
"18/06/23","19:40",0.0,20.3,91.9,999.3,336.6,1.2,1.9,347.9,0.00,19.0,21.7,"19:38:08",1
"18/06/23","19:50",0.0,20.1,92.4,999.1,328.4,1.3,1.9,335.8,0.00,18.9,21.6,"19:49:12",1
"18/06/23","20:00",0.0,20.0,92.8,999.3,314.5,1.0,1.4,323.4,0.00,18.8,21.5,"19:50:08",1
"18/06/23","20:10",0.0,19.7,93.0,999.1,292.1,0.7,1.2,331.5,0.00,18.6,21.3,"20:01:36",1
"18/06/23","20:20",0.0,19.4,93.4,999.3,308.7,0.8,1.2,325.1,0.00,18.3,21.4,"20:14:16",1
"18/06/23","20:30",0.0,19.3,94.2,999.6,327.0,1.2,1.8,342.8,0.00,18.4,21.3,"20:27:36",1
"18/06/23","20:40",0.0,19.3,94.3,999.8,308.3,0.8,1.4,332.0,0.00,18.4,21.3,"20:31:04",1
"18/06/23","20:50",0.0,19.2,94.7,1000.0,304.5,0.6,1.0,323.8,0.00,18.4,21.2,"20:46:40",1
"18/06/23","21:00",0.0,19.3,94.9,1000.3,306.8,1.0,1.6,319.3,0.00,18.5,21.2,"20:59:52",1
"18/06/23","21:10",0.0,19.3,94.9,1000.3,316.6,1.1,1.6,328.9,0.00,18.5,21.1,"21:00:08",1
"18/06/23","21:20",0.0,19.3,95.2,1000.5,326.4,1.0,1.3,340.6,0.00,18.6,21.0,"21:12:16",1
"18/06/23","21:30",0.0,19.4,95.2,1000.3,320.5,1.0,1.1,324.9,0.00,18.7,21.0,"21:20:08",1
"18/06/23","21:40",0.0,19.3,95.2,1000.3,315.2,0.8,1.4,328.0,0.00,18.6,21.0,"21:30:40",1
"18/06/23","21:50",0.0,19.2,95.4,1000.0,289.4,0.7,1.2,325.4,0.00,18.5,20.8,"21:47:44",1
"18/06/23","22:00",0.0,19.2,95.5,1000.3,306.6,1.0,1.4,317.2,0.00,18.5,21.1,"21:51:28",1
"18/06/23","22:10",0.0,19.2,95.6,1000.3,313.2,1.1,1.6,326.5,0.00,18.5,21.1,"22:08:56",1
"18/06/23","22:20",0.0,19.2,95.7,1000.5,298.4,0.8,1.2,311.0,0.00,18.5,21.0,"22:10:32",1
"18/06/23","22:30",0.0,19.2,95.6,1000.0,310.6,0.7,1.7,325.2,0.00,18.5,20.9,"22:21:52",1
"18/06/23","22:40",0.0,19.1,95.8,1000.3,302.6,0.8,1.2,320.4,0.00,18.5,20.9,"22:39:12",1
"18/06/23","22:50",0.0,19.1,95.9,1000.3,307.0,0.8,1.2,320.4,0.00,18.5,20.8,"22:42:32",1
"18/06/23","23:00",0.0,19.1,96.0,1000.3,307.0,1.0,1.6,322.3,0.00,18.5,21.0,"22:53:20",1
"18/06/23","23:10",0.0,19.1,96.0,1000.5,312.6,1.0,1.8,331.7,0.00,18.5,20.7,"23:08:32",1
"18/06/23","23:20",0.0,19.2,96.0,1000.8,322.9,1.1,1.8,333.4,0.00,18.6,20.9,"23:14:16",1
"18/06/23","23:30",0.0,19.2,96.1,1000.5,328.2,1.1,1.4,325.2,0.00,18.6,20.9,"23:23:04",1
"18/06/23","23:40",0.0,19.2,96.1,1000.0,312.9,0.7,1.0,326.5,0.00,18.6,20.8,"23:30:32",1
"18/06/23","23:50",0.0,19.2,96.1,999.8,283.7,0.7,1.0,279.7,0.00,18.6,20.8,"23:45:52",1
"18/06/23","24:00",0.0,19.1,96.2,1000.0,276.8,0.7,1.0,270.1,0.00,18.5,20.9,"23:50:08",1
